Location: Gleizolles
(44.4833°N, 6.7667°E)
Time: 09:16:20
(UTC+00:00)

CZ-2C R/B - Pass Details

Date: 09 April 2020
Orbit: 705 x 907 km, 98.1° (Epoch: 04 June)

Event Time Altitude Azimuth Distance (km) Brightness Sun altitude
Rises 18:31:27 0° 147° (SSE) 3,155 5.7 -4.4°
Reaches altitude 10° 18:33:49 10° 141° (SE) 2,215 4.9 -4.8°
Maximum altitude 18:38:23 44° 70° (ENE) 984 3.3 -5.6°
Drops below altitude 10° 18:42:54 10° 359° (N) 2,186 5.6 -6.4°
Sets 18:45:13 0° 353° (N) 3,109 6.5 -6.8°
